• In Germany
  • List of Countries
  • For 7 days
  • Water Temperature
  • Satellite Maps
  • Weather Map
  • Weather Widgets
  • user-avatar
    Login

    Hourly Weather Pune

    Today, 23 October, Tuesday

    Time Temperature Precipitation Wind Pressure Humidity
    00:00 +26°C° 0 mm 2 mps 712 mmHg 67%
    01:00 +26°C° 0 mm 2 mps 712 mmHg 65%
    02:00 +26°C° 0 mm 2 mps 712 mmHg 64%
    03:00 +26°C° 0 mm 2 mps 712 mmHg 51%
    04:00 +25°C° 0 mm 2 mps 712 mmHg 46%
    05:00 +25°C° 0 mm 2 mps 712 mmHg 51%
    06:00 +26°C° 0 mm 2 mps 712 mmHg 48%
    07:00 +28°C° 0 mm 2 mps 713 mmHg 45%
    08:00 +29°C° 0 mm 2 mps 713 mmHg 42%
    09:00 +31°C° 0 mm 2 mps 713 mmHg 39%
    10:00 +32°C° 0 mm 2 mps 713 mmHg 35%
    11:00 +35°C° 0 mm 2 mps 713 mmHg 32%
    12:00 +35°C° 0 mm 2 mps 713 mmHg 31%
    13:00 +36°C° 0 mm 2 mps 712 mmHg 29%
    14:00 +35°C° 0 mm 1 mps 712 mmHg 28%
    15:00 +35°C° 0 mm 2 mps 712 mmHg 32%
    16:00 +34°C° 0 mm 2 mps 711 mmHg 37%
    17:00 +32°C° 0 mm 2 mps 711 mmHg 41%
    18:00 +31°C° 0 mm 2 mps 711 mmHg 42%
    19:00 +29°C° 0 mm 2 mps 712 mmHg 44%
    20:00 +28°C° 0 mm 2 mps 712 mmHg 45%
    21:00 +27°C° 0 mm 2 mps 712 mmHg 45%
    22:00 +27°C° 0 mm 2 mps 712 mmHg 45%
    23:00 +26°C° 0 mm 1 mps 712 mmHg 45%

    Tomorrow, 24 October, Wednesday

    Time Temperature Precipitation Wind Pressure Humidity
    00:00 +26°C° 0 mm 2 mps 712 mmHg 43%
    01:00 +26°C° 0 mm 2 mps 712 mmHg 41%
    02:00 +26°C° 0 mm 2 mps 711 mmHg 40%
    03:00 +25°C° 0 mm 2 mps 711 mmHg 39%
    04:00 +25°C° 0 mm 2 mps 711 mmHg 39%
    05:00 +24°C° 0 mm 2 mps 711 mmHg 38%
    06:00 +26°C° 0 mm 2 mps 712 mmHg 38%
    07:00 +27°C° 0 mm 2 mps 713 mmHg 37%
    08:00 +28°C° 0 mm 3 mps 713 mmHg 37%
    09:00 +30°C° 0 mm 3 mps 713 mmHg 34%
    10:00 +33°C° 0 mm 3 mps 713 mmHg 31%
    11:00 +34°C° 0 mm 3 mps 714 mmHg 28%
    12:00 +35°C° 0 mm 2 mps 713 mmHg 27%
    13:00 +36°C° 0 mm 2 mps 712 mmHg 26%
    14:00 +35°C° 0 mm 1 mps 712 mmHg 25%
    15:00 +34°C° 0 mm 1 mps 711 mmHg 29%
    16:00 +33°C° 0 mm 1 mps 711 mmHg 33%
    17:00 +32°C° 0 mm 1 mps 711 mmHg 37%
    18:00 +31°C° 0 mm 2 mps 711 mmHg 39%
    19:00 +29°C° 0 mm 2 mps 711 mmHg 41%
    20:00 +28°C° 0 mm 2 mps 712 mmHg 43%
    21:00 +27°C° 0 mm 2 mps 712 mmHg 43%
    22:00 +27°C° 0 mm 2 mps 712 mmHg 43%
    23:00 +26°C° 0 mm 2 mps 712 mmHg 43%

    Day after tomorrow, 25 October, Thursday

    Time Temperature Precipitation Wind Pressure Humidity
    00:00 +26°C° 0 mm 2 mps 712 mmHg 44%
    01:00 +26°C° 0 mm 2 mps 712 mmHg 45%
    02:00 +25°C° 0 mm 2 mps 711 mmHg 47%
    03:00 +25°C° 0 mm 2 mps 711 mmHg 51%
    04:00 +25°C° 0 mm 2 mps 712 mmHg 55%
    05:00 +25°C° 0 mm 3 mps 712 mmHg 59%
    06:00 +26°C° 0 mm 3 mps 712 mmHg 60%
    07:00 +27°C° 0 mm 3 mps 713 mmHg 60%
    08:00 +28°C° 0 mm 3 mps 714 mmHg 61%
    09:00 +30°C° 0 mm 4 mps 714 mmHg 54%
    10:00 +33°C° 0 mm 4 mps 714 mmHg 47%
    11:00 +34°C° 0 mm 5 mps 714 mmHg 40%
    12:00 +34°C° 0 mm 5 mps 714 mmHg 39%
    13:00 +34°C° 0 mm 4 mps 713 mmHg 39%
    14:00 +34°C° 0 mm 4 mps 712 mmHg 38%
    15:00 +33°C° 0 mm 3 mps 712 mmHg 42%
    16:00 +31°C° 0 mm 3 mps 712 mmHg 45%
    17:00 +30°C° 0 mm 2 mps 712 mmHg 48%
    18:00 +29°C° 0.1 mm 2 mps 713 mmHg 51%
    19:00 +28°C° 0.1 mm 2 mps 713 mmHg 54%
    20:00 +27°C° 0.1 mm 2 mps 713 mmHg 57%
    21:00 +26°C° 0.1 mm 2 mps 714 mmHg 58%
    22:00 +26°C° 0.1 mm 1 mps 714 mmHg 60%
    23:00 +26°C° 0.1 mm 1 mps 714 mmHg 61%

    26 October, Friday

    Time Temperature Precipitation Wind Pressure Humidity
    00:00 +26°C° 0 mm 1 mps 714 mmHg 62%
    01:00 +25°C° 0 mm 1 mps 713 mmHg 63%
    02:00 +25°C° 0 mm 1 mps 713 mmHg 63%
    03:00 +25°C° 0 mm 1 mps 713 mmHg 63%
    04:00 +25°C° 0 mm 1 mps 713 mmHg 64%
    05:00 +25°C° 0 mm 2 mps 713 mmHg 64%
    06:00 +26°C° 0 mm 2 mps 714 mmHg 61%
    07:00 +27°C° 0 mm 2 mps 715 mmHg 58%
    08:00 +28°C° 0 mm 3 mps 715 mmHg 55%
    09:00 +29°C° 0 mm 3 mps 716 mmHg 48%
    10:00 +32°C° 0 mm 4 mps 716 mmHg 41%
    11:00 +34°C° 0 mm 4 mps 716 mmHg 34%
    12:00 +34°C° 0 mm 4 mps 715 mmHg 32%
    13:00 +35°C° 0 mm 4 mps 714 mmHg 30%
    14:00 +35°C° 0 mm 4 mps 713 mmHg 28%
    15:00 +34°C° 0 mm 3 mps 713 mmHg 30%
    16:00 +33°C° 0 mm 3 mps 713 mmHg 32%
    17:00 +31°C° 0 mm 3 mps 713 mmHg 34%
    18:00 +30°C° 0 mm 3 mps 713 mmHg 34%
    19:00 +29°C° 0 mm 3 mps 713 mmHg 34%
    20:00 +28°C° 0 mm 3 mps 714 mmHg 34%
    21:00 +27°C° 0 mm 3 mps 714 mmHg 35%
    22:00 +27°C° 0 mm 3 mps 714 mmHg 36%
    23:00 +26°C° 0 mm 3 mps 714 mmHg 37%

    27 October, Saturday

    Time Temperature Precipitation Wind Pressure Humidity
    00:00 +26°C° 0 mm 3 mps 714 mmHg 39%
    01:00 +25°C° 0 mm 3 mps 713 mmHg 41%
    02:00 +25°C° 0 mm 2 mps 713 mmHg 42%
    03:00 +24°C° 0 mm 2 mps 713 mmHg 44%
    04:00 +24°C° 0 mm 2 mps 713 mmHg 45%
    05:00 +23°C° 0 mm 2 mps 713 mmHg 47%
    06:00 +24°C° 0 mm 2 mps 714 mmHg 45%
    07:00 +26°C° 0 mm 2 mps 714 mmHg 44%
    08:00 +27°C° 0 mm 3 mps 715 mmHg 42%
    09:00 +29°C° 0 mm 4 mps 715 mmHg 37%
    10:00 +32°C° 0 mm 4 mps 715 mmHg 31%
    11:00 +34°C° 0 mm 5 mps 715 mmHg 26%
    12:00 +34°C° 0 mm 5 mps 714 mmHg 25%
    13:00 +35°C° 0 mm 5 mps 714 mmHg 23%
    14:00 +35°C° 0 mm 5 mps 713 mmHg 22%
    15:00 +34°C° 0 mm 4 mps 713 mmHg 25%
    16:00 +33°C° 0 mm 3 mps 713 mmHg 28%
    17:00 +31°C° 0 mm 3 mps 712 mmHg 31%
    18:00 +30°C° 0 mm 3 mps 713 mmHg 31%
    19:00 +28°C° 0 mm 3 mps 713 mmHg 31%
    20:00 +27°C° 0 mm 3 mps 714 mmHg 30%
    21:00 +27°C° 0 mm 3 mps 714 mmHg 32%
    22:00 +26°C° 0 mm 3 mps 714 mmHg 33%
    23:00 +25°C° 0 mm 3 mps 714 mmHg 34%

    28 October, Sunday

    Time Temperature Precipitation Wind Pressure Humidity
    00:00 +25°C° 0 mm 2 mps 713 mmHg 36%
    01:00 +24°C° 0 mm 2 mps 713 mmHg 39%
    02:00 +24°C° 0 mm 2 mps 712 mmHg 42%
    03:00 +23°C° 0 mm 2 mps 712 mmHg 44%
    04:00 +23°C° 0 mm 2 mps 712 mmHg 47%
    05:00 +22°C° 0 mm 1 mps 713 mmHg 50%
    06:00 +24°C° 0 mm 1 mps 713 mmHg 47%
    07:00 +25°C° 0 mm 2 mps 714 mmHg 45%
    08:00 +27°C° 0 mm 2 mps 715 mmHg 42%
    09:00 +29°C° 0 mm 3 mps 715 mmHg 37%
    10:00 +32°C° 0 mm 4 mps 715 mmHg 32%
    11:00 +34°C° 0 mm 5 mps 715 mmHg 26%
    12:00 +34°C° 0 mm 5 mps 714 mmHg 25%
    13:00 +35°C° 0 mm 4 mps 713 mmHg 23%
    14:00 +35°C° 0 mm 4 mps 712 mmHg 22%
    15:00 +34°C° 0 mm 4 mps 712 mmHg 25%
    16:00 +33°C° 0 mm 3 mps 712 mmHg 28%
    17:00 +31°C° 0 mm 3 mps 712 mmHg 32%
    18:00 +29°C° 0 mm 3 mps 712 mmHg 32%
    19:00 +28°C° 0 mm 3 mps 713 mmHg 32%
    20:00 +27°C° 0 mm 3 mps 713 mmHg 33%
    21:00 +26°C° 0 mm 3 mps 713 mmHg 34%
    22:00 +26°C° 0 mm 3 mps 713 mmHg 35%
    23:00 +25°C° 0 mm 3 mps 713 mmHg 37%

    29 October, Monday

    Time Temperature Precipitation Wind Pressure Humidity
    00:00 +25°C° 0 mm 3 mps 713 mmHg 38%
    01:00 +24°C° 0 mm 2 mps 712 mmHg 40%
    02:00 +24°C° 0 mm 2 mps 712 mmHg 41%
    03:00 +23°C° 0 mm 2 mps 712 mmHg 43%
    04:00 +23°C° 0 mm 2 mps 712 mmHg 45%
    05:00 +22°C° 0 mm 1 mps 712 mmHg 47%
    06:00 +24°C° 0 mm 2 mps 713 mmHg 44%
    07:00 +25°C° 0 mm 2 mps 714 mmHg 42%
    08:00 +26°C° 0 mm 2 mps 714 mmHg 40%
    09:00 +29°C° 0 mm 3 mps 714 mmHg 35%
    10:00 +32°C° 0 mm 4 mps 714 mmHg 29%
    11:00 +34°C° 0 mm 5 mps 714 mmHg 24%
    12:00 +34°C° 0 mm 5 mps 714 mmHg 23%
    13:00 +35°C° 0 mm 5 mps 713 mmHg 22%
    14:00 +35°C° 0 mm 5 mps 712 mmHg 21%
    15:00 +34°C° 0 mm 5 mps 712 mmHg 24%
    16:00 +33°C° 0 mm 4 mps 712 mmHg 27%
    17:00 +31°C° 0 mm 3 mps 712 mmHg 30%
    18:00 +29°C° 0 mm 3 mps 712 mmHg 30%
    19:00 +28°C° 0 mm 3 mps 712 mmHg 31%
    20:00 +27°C° 0 mm 2 mps 713 mmHg 31%
    21:00 +26°C° 0 mm 2 mps 713 mmHg 32%
    22:00 +26°C° 0 mm 2 mps 713 mmHg 33%
    23:00 +25°C° 0 mm 2 mps 713 mmHg 35%
    Show more